Bogalusa, LA

9:09 PM CDT on April 26, 2017 (GMT -0500)
Carr Memorial

Weather History for KBXA - March, 2014

Change the Weather History Date:

Thursday, March 27, 2014

  Actual Average Record
Temperature  
Mean Temperature 58 °F -  
Max Temperature 71 °F 70 °F 71 °F (2014)
Min Temperature 46 °F 47 °F 27 °F (2013)
Degree Days  
Heating Degree Days 6    
Growing Degree Days 8 (Base 50)    
Moisture  
Dew Point 51 °F    
Average Humidity 69    
Maximum Humidity 89    
Minimum Humidity 56    
Precipitation  
Precipitation 0.23 in - - ()
Sea Level Pressure  
Sea Level Pressure 30.10 in    
Wind  
Wind Speed 7 mph (SSE)    
Max Wind Speed 18 mph    
Max Gust Speed 26 mph    
Visibility 10 miles    
Events Rain , Thunderstorm    
Averages and records for this station are not official NWS values.
T = Trace of Precipitation, MM = Missing Value Source: NWS Daily Summary

Daily Weather History Graph

Daily Weather History Graph

Search for Another Location

Airport or City:

Trip Planner

Search our weather history database for the weather conditions in past years. The results will help you decide how hot, cold, wet, or windy it might be!

Date:

Astronomy

Mar. 27, 2014 Rise Set
Actual Time 6:54 AM CDT 7:15 PM CDT
Civil Twilight 6:30 AM CDT 7:39 PM CDT
Nautical Twilight 6:02 AM CDT 8:07 PM CDT
Astronomical Twilight 5:33 AM CDT 8:36 PM CDT
Moon 4:32 AM CDT 4:14 PM CDT
Length of Visible Light 13h 09m
Length of Day
12h 20m
Waning Crescent, 13% of the Moon is Illuminated
Mar 27
Waning Crescent
Mar 30
New
Apr 7
First Quarter
Apr 15
Full
Apr 22
Last Quarter

Hourly Weather History & Observations

Time (CDT) Temp. Dew Point Humidity Pressure Visibility Wind Dir Wind Speed Gust Speed Precip Events Conditions
12:15 AM 49.3 °F 37.9 °F 65% 30.22 in 10.0 mi ESE 5.8 mph - N/A   Unknown
12:35 AM 49.8 °F 37.4 °F 62% 30.21 in 10.0 mi SSE 4.6 mph - N/A   Unknown
12:55 AM 51.3 °F 37.4 °F 59% 30.19 in 10.0 mi SSE 5.8 mph - N/A   Unknown
1:15 AM 52.3 °F 37.6 °F 57% 30.18 in 10.0 mi SSE 6.9 mph - N/A   Unknown
1:35 AM 52.7 °F 38.3 °F 58% 30.18 in 10.0 mi SE 4.6 mph - N/A   Unknown
1:55 AM 52.9 °F 38.3 °F 58% 30.18 in 10.0 mi SE 4.6 mph - N/A   Unknown
2:15 AM 53.1 °F 38.7 °F 58% 30.18 in 10.0 mi SSE 4.6 mph - N/A   Unknown
2:35 AM 52.9 °F 39.0 °F 59% 30.17 in 10.0 mi ESE 3.5 mph - N/A   Unknown
2:55 AM 52.7 °F 39.0 °F 60% 30.16 in 10.0 mi SE 3.5 mph - N/A   Unknown
3:15 AM 52.7 °F 39.2 °F 60% 30.16 in 10.0 mi Calm Calm - N/A   Unknown
3:35 AM 52.3 °F 39.4 °F 61% 30.16 in 10.0 mi SE 3.5 mph - N/A   Unknown
3:55 AM 52.3 °F 40.1 °F 63% 30.16 in 10.0 mi Calm Calm - N/A   Unknown
4:15 AM 51.6 °F 40.1 °F 65% 30.15 in 10.0 mi Calm Calm - N/A   Unknown
4:35 AM 50.5 °F 39.9 °F 67% 30.14 in 10.0 mi Calm Calm - N/A   Unknown
4:55 AM 49.8 °F 40.3 °F 70% 30.14 in 10.0 mi Calm Calm - N/A   Unknown
5:15 AM 46.9 °F 40.8 °F 79% 30.13 in 10.0 mi Calm Calm - N/A   Unknown
5:35 AM 46.6 °F 41.0 °F 81% 30.13 in 10.0 mi Calm Calm - N/A   Unknown
5:55 AM 46.4 °F 40.8 °F 81% 30.13 in 10.0 mi Calm Calm - N/A Thunderstorm Unknown
6:15 AM 48.4 °F 41.0 °F 76% 30.13 in 10.0 mi Calm Calm - N/A   Unknown
6:35 AM 49.1 °F 41.0 °F 74% 30.13 in 10.0 mi Calm Calm - N/A   Unknown
6:55 AM 48.7 °F 41.2 °F 75% 30.13 in 10.0 mi Calm Calm - N/A   Unknown
7:15 AM 49.1 °F 41.9 °F 76% 30.13 in 10.0 mi ESE 3.5 mph - N/A   Unknown
7:35 AM 50.0 °F 42.8 °F 76% 30.14 in 10.0 mi ESE 3.5 mph - N/A   Unknown
7:55 AM 52.2 °F 43.9 °F 73% 30.14 in 10.0 mi ESE 3.5 mph - N/A   Unknown
8:15 AM 54.3 °F 45.3 °F 72% 30.14 in 10.0 mi SE 4.6 mph - N/A   Unknown
8:35 AM 57.0 °F 46.9 °F 69% 30.15 in 10.0 mi SE 3.5 mph - N/A   Unknown
8:55 AM 60.6 °F 49.1 °F 66% 30.15 in 10.0 mi SE 6.9 mph - N/A   Unknown
9:15 AM 61.9 °F 49.3 °F 63% 30.15 in 10.0 mi SE 9.2 mph 16.1 mph N/A   Unknown
9:35 AM 64.4 °F 50.9 °F 62% 30.15 in 10.0 mi SSE 13.8 mph 21.9 mph N/A   Unknown
9:55 AM 67.1 °F 52.2 °F 59% 30.14 in - SSE 11.5 mph 20.7 mph N/A   Unknown
10:15 AM 68.7 °F 53.1 °F 57% 30.14 in 10.0 mi SSE 10.4 mph 17.3 mph N/A   Unknown
10:35 AM 68.5 °F 53.2 °F 58% 30.14 in 10.0 mi SSE 11.5 mph 23.0 mph N/A   Unknown
10:55 AM 68.7 °F 53.8 °F 59% 30.14 in 10.0 mi SSE 17.3 mph 26.5 mph N/A   Unknown
11:15 AM 70.5 °F 54.3 °F 56% 30.14 in 10.0 mi SSE 15.0 mph 26.5 mph N/A   Unknown
11:35 AM 70.7 °F 54.7 °F 57% 30.14 in 10.0 mi South 13.8 mph 23.0 mph N/A   Unknown
11:55 AM 69.8 °F 54.5 °F 58% 30.14 in 10.0 mi SSE 13.8 mph 21.9 mph N/A   Unknown
12:15 PM 68.9 °F 54.5 °F 60% 30.15 in 10.0 mi SSE 16.1 mph 21.9 mph N/A   Unknown
12:35 PM 68.9 °F 54.7 °F 60% 30.13 in 10.0 mi SSE 11.5 mph 21.9 mph N/A   Unknown
12:55 PM 71.1 °F 55.2 °F 57% 30.13 in - SSE 12.7 mph 18.4 mph N/A   Unknown
1:15 PM 69.8 °F 55.0 °F 59% 30.13 in - SSE 10.4 mph - N/A   Unknown
1:35 PM 70.2 °F 54.7 °F 58% 30.12 in 10.0 mi SSE 18.4 mph 23.0 mph N/A   Unknown
1:55 PM 68.4 °F 55.4 °F 63% 30.11 in 10.0 mi SSE 15.0 mph 24.2 mph N/A   Unknown
2:15 PM 68.9 °F 54.9 °F 61% 30.11 in 10.0 mi South 12.7 mph 21.9 mph N/A   Unknown
2:35 PM 68.0 °F 55.4 °F 64% 30.10 in 10.0 mi SSE 15.0 mph 24.2 mph N/A   Unknown
2:55 PM 68.9 °F 55.6 °F 62% 30.09 in 10.0 mi SSE 16.1 mph 21.9 mph N/A   Unknown
3:15 PM 69.3 °F 55.4 °F 61% 30.09 in - SSE 15.0 mph 21.9 mph N/A   Unknown
3:35 PM 69.1 °F 55.4 °F 62% 30.08 in 10.0 mi SE 15.0 mph 20.7 mph N/A   Unknown
3:55 PM 68.4 °F 55.8 °F 64% 30.06 in 10.0 mi SSE 11.5 mph 20.7 mph N/A   Unknown
4:15 PM 68.2 °F 56.1 °F 65% 30.05 in 10.0 mi SSE 13.8 mph 20.7 mph N/A   Unknown
4:35 PM 68.0 °F 56.5 °F 67% 30.05 in 10.0 mi SSE 11.5 mph 20.7 mph N/A   Unknown
4:55 PM 68.0 °F 56.5 °F 67% 30.04 in 10.0 mi SE 10.4 mph - N/A   Unknown
5:15 PM 68.0 °F 56.8 °F 67% 30.03 in 10.0 mi SSE 11.5 mph 16.1 mph N/A   Unknown
5:35 PM 68.0 °F 57.2 °F 68% 30.04 in 10.0 mi SSE 13.8 mph 18.4 mph N/A   Unknown
5:55 PM 67.1 °F 58.1 °F 73% 30.02 in - SSE 12.7 mph 19.6 mph N/A   Unknown
6:15 PM 67.1 °F 58.1 °F 73% 30.02 in 10.0 mi SSE 15.0 mph 18.4 mph N/A   Light Drizzle
6:35 PM 66.4 °F 57.4 °F 73% 30.02 in 10.0 mi SSE 15.0 mph 26.5 mph N/A   Unknown
6:55 PM 65.7 °F 58.1 °F 77% 30.03 in 10.0 mi SSE 5.8 mph 16.1 mph N/A Rain Light Rain
7:15 PM 65.5 °F 59.0 °F 80% 30.03 in 10.0 mi SE 8.1 mph - N/A Rain Light Rain
7:35 PM 65.3 °F 59.4 °F 81% 30.02 in 10.0 mi SE 8.1 mph - N/A   Unknown
7:55 PM 64.8 °F 59.9 °F 84% 30.01 in 7.0 mi SE 11.5 mph 21.9 mph N/A   Drizzle
8:15 PM 64.6 °F 60.1 °F 85% 30.01 in 10.0 mi SSE 12.7 mph 19.6 mph N/A   Unknown
8:35 PM 64.8 °F 60.3 °F 85% 30.02 in 10.0 mi SSE 13.8 mph - N/A   Unknown
8:55 PM 64.6 °F 60.4 °F 86% 30.02 in 10.0 mi SSE 8.1 mph - N/A   Unknown
9:15 PM 64.9 °F 60.8 °F 86% 30.02 in 10.0 mi SSE 8.1 mph - N/A   Unknown
9:35 PM 64.9 °F 60.8 °F 86% 30.01 in 10.0 mi SE 8.1 mph - N/A   Unknown
9:55 PM 65.3 °F 61.0 °F 86% 30.02 in 10.0 mi SSE 6.9 mph - N/A   Unknown
10:15 PM 65.3 °F 61.3 °F 87% 30.02 in 10.0 mi SSE 6.9 mph - N/A Rain Light Rain
10:35 PM 65.3 °F 61.7 °F 88% 30.02 in 10.0 mi South 8.1 mph - N/A   Unknown
10:55 PM 65.3 °F 61.7 °F 88% 30.01 in 7.0 mi SSE 6.9 mph - 0.02 in Rain Light Rain
11:15 PM 65.5 °F 61.9 °F 88% 29.99 in 10.0 mi SSE 9.2 mph - 0.01 in Rain , Thunderstorm Thunderstorms and Rain
11:35 PM 65.7 °F 62.1 °F 88% 30.02 in 7.0 mi South 5.8 mph - 0.05 in Rain , Thunderstorm Thunderstorms and Rain
11:55 PM 65.7 °F 62.2 °F 89% 30.00 in 4.0 mi South 5.8 mph 18.4 mph 0.21 in Rain , Thunderstorm Heavy Thunderstorms and Rain